Wind_Speed
8 8 8 8 8 8 8 8 8 8 8 8 8 7 8 8 8 8 8 8 8 8 8 8 8 8 8 8 8 8 9 9 9 9 9 9 9 9 9 9 8 9 9
9 8 9 9 8 8 8 8 8 8 9 8 8 8 8 9 8 8 9 9 8 8 8 8 8 8 8 8 8 9 10 10 10 9 9 9 10 9 9 9 9 10 10
9 9 9 9 9 9 8 8 8 8 9 9 9 9 9 9 8 8 9 9 9 9 9 8 8 8 8 9 9 9 10 10 10 10 9 9 10 10 10 10 10 10 11
10 10 10 10 10 10 9 9 9 10 10 10 10 10 10 10 10 10 9 9 9 9 9 9 9 9 9 9 9 10 10 10 10 10 10 10 10 11 11 11 11 12 11
10 9 10 10 10 10 10 10 10 10 11 11 10 11 10 11 11 11 10 9 10 9 9 10 10 10 10 10 11 11 11 11 11 11 11 11 11 11 11 12 12 13 12
11 11 10 11 11 11 11 11 11 11 12 12 11 12 12 11 11 11 11 11 11 11 11 11 11 11 11 11 11 11 11 12 12 12 12 12 12 12 12 13 13 13 13
12 12 12 12 12 12 12 12 12 12 12 12 12 13 13 12 12 12 12 12 12 12 12 11 11 12 12 12 12 12 12 13 13 13 13 13 13 13 13 13 13 13 13
13 13 13 13 13 13 13 13 13 13 14 13 14 14 14 14 13 13 13 12 13 13 13 13 13 13 13 13 13 13 13 13 13 14 14 14 14 14 13 13 13 13 13
14 14 14 14 14 14 14 14 14 14 14 15 15 15 15 15 15 15 14 14 14 14 14 15 14 14 14 15 15 15 14 15 15 14 14 14 14 14 14 14 14 14 13
14 14 15 15 15 15 15 15 15 15 15 15 15 15 16 16 16 16 16 15 15 15 15 15 15 15 16 16 16 16 15 16 16 16 15 15 15 15 15 15 15 14 15
15 15 15 15 15 15 15 16 16 16 16 16 16 16 17 17 16 16 16 15 16 17 16 16 16 17 17 17 17 17 17 16 17 17 16 16 16 15 15 15 15 15 16
16 15 15 16 15 15 16 16 17 17 18 17 17 17 18 18 17 17 17 17 17 17 18 17 17 18 19 19 18 18 18 18 18 18 17 17 16 16 16 15 16 16 16
17 16 16 17 17 17 17 17 18 18 18 18 19 19 19 19 18 18 18 18 18 18 18 18 18 18 18 18 18 18 18 18 18 18 18 17 17 17 17 16 16 16 16
18 18 18 18 18 18 18 19 19 18 19 19 19 20 20 19 19 19 19 20 19 19 18 18 19 19 19 18 18 18 18 18 18 18 17 17 17 17 17 17 17 17 16
19 19 19 19 19 19 20 20 20 20 21 20 20 21 21 20 19 19 19 20 19 19 19 19 19 19 19 19 19 19 19 19 18 18 18 17 17 17 17 17 17 17 17
20 20 21 20 21 21 21 21 21 21 21 21 21 21 20 20 19 19 20 20 20 20 20 20 19 19 19 19 20 20 20 19 19 18 18 18 18 17 17 17 17 18 18
22 22 22 22 22 22 22 22 21 21 21 21 21 21 21 21 20 21 21 21 21 21 21 20 20 20 20 20 21 21 21 19 19 19 19 19 18 19 19 19 19 19 19
24 23 23 23 23 23 23 23 23 23 22 23 23 22 22 22 21 21 22 22 22 22 21 21 22 21 21 21 21 20 20 20 19 19 19 19 19 20 20 20 20 20 20
25 25 25 25 25 25 25 25 25 24 24 24 24 23 23 22 22 22 22 22 22 23 23 23 23 22 22 22 22 21 21 21 21 20 20 19 20 21 21 21 21 21 20
27 27 26 26 26 26 26 26 26 26 25 25 24 24 23 23 23 23 24 24 24 24 24 24 23 23 23 23 22 22 22 22 22 22 22 22 23 23 22 22 22 22 22
29 29 28 28 27 27 27 27 27 27 27 26 26 25 24 24 24 25 25 25 25 26 26 25 24 24 24 24 24 24 24 24 24 24 24 24 24 24 24 24 24 23 23
31 30 30 30 29 29 29 28 28 28 28 28 27 26 26 25 25 26 26 26 26 26 26 26 25 25 25 25 25 25 25 25 25 25 25 25 25 25 25 25 25 25 24
31 32 32 32 31 31 31 30 29 29 29 29 29 28 28 28 27 27 27 27 26 26 26 26 26 26 25 25 25 26 26 26 26 25 26 26 25 25 26 26 26 26 26
32 33 33 33 32 32 33 32 31 31 31 30 30 30 30 29 29 29 28 28 28 28 27 27 27 27 26 26 26 26 26 26 26 26 26 27 27 27 27 27 27 27 27
33 33 33 33 33 33 33 33 33 32 32 31 32 32 32 31 31 30 29 29 29 29 29 29 28 27 27 27 27 27 27 27 27 27 28 28 28 28 28 28 28 29 29
33 32 32 32 32 32 32 33 34 33 33 32 33 33 33 32 32 31 30 30 30 30 30 30 29 29 29 28 28 28 28 29 30 29 28 28 28 28 28 28 29 29 30
Wind_Direction
262 261 263 262 263 267 269 272 275 281 281 279 276 271 271 273 278 283 286 286 285 284 286 285 289 289 288 286 286 291 299 299 292 285 277 273 272 271 272 273 275 275 278
261 261 265 265 266 269 270 270 272 275 278 281 280 276 275 275 275 277 280 284 286 288 287 284 285 286 287 288 289 294 299 296 292 287 281 275 272 272 274 275 274 277 279
263 262 264 266 266 268 268 267 267 270 272 272 273 274 275 273 276 278 278 280 283 283 284 288 286 287 288 289 293 296 296 294 293 291 284 278 274 273 272 275 276 277 278
266 266 267 269 268 270 271 271 269 270 270 269 270 271 272 276 276 277 277 276 280 281 282 286 289 289 290 291 294 298 298 296 293 290 286 281 278 277 274 275 277 277 276
271 271 270 271 272 273 273 273 272 272 272 269 271 272 273 276 277 276 275 276 280 283 285 284 287 287 288 289 291 294 295 295 291 287 285 283 280 279 277 275 276 278 277
272 273 273 271 272 275 275 277 276 273 272 269 271 273 274 275 276 276 275 276 277 279 282 284 286 286 286 287 290 292 292 292 290 287 285 285 283 282 279 275 275 277 279
272 271 272 272 273 275 275 276 276 275 273 273 270 271 272 274 275 273 274 276 276 276 278 279 281 281 283 285 288 289 289 290 289 288 286 284 281 281 280 277 275 275 277
271 272 271 271 273 274 274 273 273 273 272 272 271 271 269 271 275 275 274 274 275 276 274 276 277 278 280 282 285 287 287 287 287 286 285 285 282 280 279 277 277 276 276
271 272 273 272 272 272 272 271 271 270 272 272 272 273 272 270 271 274 276 274 273 274 275 277 276 275 276 279 282 284 285 285 285 283 282 283 283 279 278 277 276 275 276
272 273 275 275 274 273 273 270 269 269 271 272 271 274 276 274 273 273 273 271 271 274 276 275 274 275 277 278 280 282 284 284 284 283 282 282 281 278 278 277 275 276 277
274 275 276 277 277 276 274 271 269 270 270 270 271 275 276 275 276 274 270 269 270 272 274 275 274 275 277 278 279 280 282 281 282 282 282 283 280 280 279 278 275 275 275
274 275 277 278 277 278 277 275 272 270 270 270 273 276 276 274 273 272 270 268 269 271 272 272 274 275 277 278 277 277 278 279 279 280 281 282 280 278 279 278 275 274 273
275 275 277 278 277 279 278 277 277 274 272 271 273 276 277 275 273 271 270 270 270 271 271 271 273 277 279 280 279 277 276 278 279 279 279 279 279 278 277 276 274 273 273
277 276 278 277 276 278 279 279 278 276 274 276 276 277 278 277 273 270 269 269 271 269 270 273 275 276 277 278 279 279 278 278 279 278 277 278 278 277 276 275 273 272 271
276 275 276 276 277 277 279 280 278 279 278 278 278 278 277 275 273 271 270 269 270 269 269 273 276 277 275 276 278 280 279 278 276 275 275 277 277 276 274 273 273 272 272
276 276 277 277 277 277 279 280 279 280 280 279 279 278 276 273 273 274 273 271 272 271 271 272 274 275 277 278 279 279 280 279 277 275 275 277 274 273 272 272 274 274 272
277 277 278 277 277 278 279 279 278 278 279 277 277 277 275 273 272 272 272 270 270 271 270 270 272 274 277 279 281 280 279 277 276 275 273 273 273 271 271 271 273 275 275
276 278 278 277 276 277 277 278 277 276 276 275 273 273 273 272 272 271 270 271 271 270 269 269 272 273 274 276 278 279 279 278 276 275 275 274 274 272 272 273 273 274 276
275 277 278 277 275 276 276 276 275 275 275 274 273 271 270 270 271 271 271 271 270 270 269 270 271 270 271 273 274 276 278 277 277 276 275 274 274 275 274 274 274 274 274
273 276 277 278 277 275 275 275 275 274 273 272 271 269 267 268 268 269 269 270 271 271 272 270 270 269 270 271 273 274 275 277 277 276 274 273 273 274 274 274 274 273 274
272 274 275 277 278 276 275 274 274 272 270 270 269 268 267 267 268 268 268 269 270 270 271 270 269 270 271 272 273 274 273 275 276 274 273 273 272 272 272 272 272 273 273
272 272 274 276 277 275 273 273 273 272 269 268 267 266 267 268 269 267 267 269 269 269 270 270 269 270 270 271 272 273 274 275 275 274 273 273 273 271 270 270 271 271 272
272 273 274 274 274 273 272 272 272 271 269 268 266 265 267 267 269 267 266 267 267 267 270 270 270 270 271 271 272 273 274 275 275 274 273 273 273 272 271 271 272 272 272
272 273 274 274 273 272 271 271 271 270 269 268 265 265 266 267 268 267 265 265 265 266 267 269 270 270 271 271 271 272 273 274 274 273 272 273 274 273 272 272 272 273 273
271 272 273 273 273 272 271 270 269 269 269 267 265 265 264 265 266 267 265 264 264 266 267 269 270 271 271 272 272 271 272 274 275 274 274 274 273 273 273 272 272 273 273
271 271 272 272 272 271 271 269 269 270 269 267 266 265 264 264 265 266 267 267 265 265 267 269 270 271 271 271 271 271 271 272 274 276 276 275 274 274 274 273 273 274 274
Height
5856 5856 5856 5856 5856 5856 5856 5856 5856 5855 5855 5855 5854 5854 5854 5854 5853 5853 5853 5852 5852 5851 5851 5851 5850 5850 5850 5849 5848 5848 5847 5847 5846 5846 5846 5845 5845 5845 5845 5845 5845 5845 5844
5854 5854 5854 5854 5854 5854 5854 5854 5853 5853 5853 5853 5853 5852 5852 5852 5851 5851 5851 5850 5850 5849 5849 5848 5848 5848 5848 5847 5847 5846 5845 5845 5844 5844 5844 5843 5844 5842 5842 5842 5842 5842 5842
5852 5852 5852 5852 5852 5852 5852 5851 5851 5851 5851 5851 5851 5850 5850 5850 5849 5849 5849 5848 5848 5847 5847 5847 5846 5846 5845 5845 5845 5844 5844 5843 5842 5841 5841 5841 5841 5840 5840 5840 5840 5840 5839
5850 5850 5850 5850 5850 5849 5849 5849 5849 5849 5849 5848 5848 5848 5847 5847 5847 5846 5846 5846 5846 5845 5845 5844 5844 5844 5843 5843 5842 5842 5841 5841 5840 5839 5839 5839 5838 5838 5838 5838 5837 5837 5836
5848 5848 5847 5847 5847 5847 5847 5846 5846 5846 5846 5846 5846 5845 5845 5845 5844 5844 5843 5843 5843 5843 5842 5842 5842 5841 5841 5840 5840 5840 5839 5838 5838 5837 5836 5836 5835 5835 5835 5835 5834 5834 5834
5845 5845 5845 5845 5844 5844 5844 5843 5843 5843 5843 5843 5843 5843 5842 5842 5841 5841 5841 5841 5840 5840 5840 5839 5839 5839 5838 5838 5837 5837 5836 5835 5834 5834 5833 5833 5832 5832 5832 5832 5831 5831 5830
5843 5843 5842 5842 5841 5841 5841 5840 5840 5840 5840 5839 5839 5839 5839 5838 5838 5838 5838 5837 5837 5837 5837 5836 5836 5836 5835 5835 5834 5833 5833 5832 5831 5830 5830 5829 5829 5829 5828 5828 5828 5828 5827
5840 5840 5839 5839 5838 5838 5837 5836 5836 5836 5836 5836 5835 5835 5835 5835 5834 5834 5834 5834 5834 5834 5833 5833 5833 5832 5832 5831 5831 5830 5829 5828 5828 5827 5826 5826 5825 5825 5825 5825 5824 5824 5824
5837 5836 5836 5835 5834 5834 5833 5833 5832 5832 5832 5831 5831 5831 5830 5830 5830 5830 5830 5830 5830 5830 5830 5829 5829 5828 5828 5827 5827 5826 5825 5825 5824 5823 5822 5822 5821 5821 5821 5820 5820 5820 5820
5833 5833 5832 5831 5831 5830 5829 5829 5828 5828 5827 5827 5827 5826 5826 5826 5826 5826 5826 5826 5826 5826 5825 5825 5824 5824 5823 5823 5823 5822 5821 5820 5820 5819 5818 5818 5817 5817 5816 5816 5816 5816 5816
5829 5829 5828 5827 5826 5826 5825 5824 5824 5823 5823 5822 5822 5822 5821 5821 5821 5821 5821 5821 5821 5821 5820 5820 5820 5819 5819 5818 5818 5817 5816 5816 5815 5814 5814 5813 5813 5812 5812 5811 5811 5811 5811
5825 5824 5824 5823 5822 5821 5820 5820 5819 5818 5818 5818 5817 5817 5816 5816 5816 5816 5816 5816 5816 5815 5815 5815 5815 5814 5814 5813 5812 5812 5811 5810 5810 5809 5809 5808 5808 5808 5807 5807 5807 5807 5806
5820 5819 5819 5818 5817 5816 5816 5815 5814 5814 5813 5813 5812 5812 5811 5810 5810 5810 5810 5810 5810 5810 5810 5809 5809 5809 5808 5807 5807 5806 5806 5805 5804 5804 5804 5803 5803 5803 5802 5802 5802 5802 5802
5815 5815 5814 5813 5812 5811 5811 5810 5809 5808 5808 5807 5807 5806 5806 5805 5805 5804 5804 5804 5804 5804 5804 5804 5804 5803 5803 5802 5802 5801 5800 5800 5799 5799 5798 5798 5797 5797 5797 5797 5797 5796 5796
5810 5809 5809 5808 5807 5806 5805 5804 5803 5803 5802 5802 5801 5801 5800 5799 5799 5799 5799 5799 5799 5799 5799 5799 5798 5798 5797 5797 5796 5796 5795 5794 5794 5793 5793 5792 5792 5792 5792 5792 5791 5791 5791
5805 5804 5803 5802 5801 5800 5799 5798 5797 5797 5796 5796 5795 5795 5794 5794 5794 5793 5793 5793 5793 5793 5793 5793 5793 5793 5792 5792 5791 5790 5789 5789 5788 5788 5788 5787 5787 5787 5786 5786 5786 5786 5786
5799 5798 5797 5796 5795 5794 5793 5792 5791 5791 5790 5790 5789 5788 5788 5788 5788 5788 5787 5787 5787 5787 5787 5787 5787 5787 5786 5786 5785 5784 5783 5783 5783 5782 5782 5782 5781 5781 5781 5781 5780 5780 5780
5792 5791 5790 5789 5788 5787 5786 5785 5784 5784 5784 5783 5782 5782 5781 5781 5781 5781 5781 5781 5781 5781 5781 5781 5781 5780 5780 5779 5779 5778 5778 5777 5777 5777 5776 5776 5776 5775 5775 5775 5774 5774 5774
5784 5784 5783 5782 5781 5780 5779 5778 5777 5777 5776 5776 5775 5775 5775 5774 5774 5775 5775 5775 5774 5774 5774 5774 5774 5774 5773 5773 5772 5772 5772 5771 5771 5771 5770 5770 5769 5769 5769 5769 5768 5768 5767
5776 5775 5774 5773 5773 5772 5771 5770 5769 5769 5768 5768 5768 5768 5767 5767 5768 5768 5768 5768 5768 5767 5767 5767 5767 5767 5766 5766 5766 5766 5765 5765 5765 5764 5764 5764 5763 5763 5762 5762 5761 5761 5761
5766 5766 5766 5765 5764 5763 5763 5762 5761 5761 5760 5760 5760 5760 5760 5760 5760 5760 5760 5760 5760 5760 5760 5760 5759 5759 5759 5759 5759 5759 5758 5758 5758 5757 5757 5757 5756 5756 5755 5755 5754 5754 5753
5757 5756 5756 5756 5755 5754 5754 5753 5753 5752 5752 5752 5752 5752 5752 5752 5752 5752 5752 5752 5752 5752 5752 5752 5752 5751 5751 5751 5751 5751 5751 5750 5750 5750 5749 5749 5748 5748 5747 5747 5747 5746 5746
5747 5746 5746 5746 5745 5744 5744 5744 5743 5743 5743 5743 5743 5743 5744 5744 5744 5744 5744 5744 5744 5744 5745 5745 5744 5744 5744 5744 5744 5743 5743 5742 5742 5742 5741 5741 5740 5740 5740 5739 5739 5738 5738
5737 5736 5736 5735 5735 5734 5734 5734 5734 5733 5733 5733 5734 5734 5735 5735 5735 5735 5735 5736 5736 5736 5737 5737 5737 5736 5736 5736 5736 5735 5735 5735 5734 5734 5733 5733 5732 5731 5731 5731 5730 5730 5729
5727 5726 5726 5725 5725 5724 5723 5723 5723 5723 5723 5723 5724 5724 5725 5725 5726 5726 5726 5727 5727 5727 5728 5728 5728 5728 5728 5728 5727 5727 5726 5726 5726 5725 5724 5724 5723 5723 5722 5722 5721 5721 5720
5716 5716 5715 5715 5714 5714 5713 5713 5713 5712 5713 5713 5714 5714 5715 5715 5716 5716 5717 5717 5718 5718 5718 5719 5719 5719 5719 5718 5718 5718 5717 5717 5716 5716 5716 5715 5714 5714 5713 5713 5712 5712 5711